Location: Colonial Hills
(40.5656°N, 77.6119°W)
Time: 15:36:06
(UTC+00:00)

X-37B - Pass Details

Date: 03 December 2020
Orbit: 384 x 390 km, 45.0° (Epoch: 02 January)

Event Time Altitude Azimuth Distance (km) Brightness Sun altitude
Rises 00:11:57 0° 288° (WNW) 2,266 5.5 -27.5°
Reaches altitude 10° 00:14:07 10° 297° (WNW) 1,412 4.1 -27.9°
Enters shadow 00:14:31 13° 300° (WNW) 1,266 3.8 -28.0°
